Details From LZSL - Sliac
To EPKK - Balice
Flight Number -
Tags Decoded
Created
Modified
Stats Distance 149 nm / 276 km
Max Altitude 0 ft / 0 m
Waypoints 3
Social Downloads 1
Likes 0
Share VATSIM

Download

Looking for another format? Having issues loading an existing format? Contact us
Advertisement - Login to hide

Notes

Decoded

Route

LITKU MEBAN JED

ID Type Via Altitude Latitude Longitude Leg Dist Tot Dist Heading (true) Name
O LITKU FIX - 0 ft / 0 m 48.23056˚ 19.59861˚ - 0 nm - -
MEBAN FIX - 0 ft / 0 m 49.45500˚ 19.64667˚ 73 nm 73 nm 1° / 1° -
O JED VOR - 0 ft / 0 m 50.64732˚ 20.25121˚ 75 nm 148 nm 18° / 18° JEDOW VOR-DME

Altitude Profile

Advertisement - Login to hide

LZSL

Details ICAO LZSL (SLD)
Name SLIAC
Region Slovakia
Timezone Europe/Bratislava (UTC+2.0)
Stats Elevation 1,043 ft / 318 m (AMSL)
Location 48.637839° 19.134108°
Runways 1
Magnetic Variation 4.926° E

METAR

LZSL 220630Z 07003KT 020V130 9999 FEW023 BKN040 17/10 Q1018

Decode

TAF

Not found

Departure Runways

ID Width Length Bearing (true) Bearing (mag) Surface Threshold Offset Overrun Length
18 197 ft / 60 m 7,657 ft / 2,334 m 181.94° 177.01° Concrete 0 ft / 0 m 180 ft / 55 m
36 197 ft / 60 m 7,657 ft / 2,334 m 1.93° 357.00° Concrete 0 ft / 0 m 65 ft / 20 m

EPKK

Details ICAO EPKK (KRK)
Name BALICE
Region Poland
Timezone Europe/Warsaw (UTC+2.0)
Stats Elevation 791 ft / 241 m (AMSL)
Location 50.077821° 19.785503°
Runways 1
Magnetic Variation 5.255° E

METAR

EPKK 220630Z 06005KT CAVOK 15/10 Q1016

Decode

TAF

TAF EPKK 220530Z 2206/2306 06005KT CAVOK TEMPO 2215/2303 SHRA SCT030CB PROB30 TEMPO 2215/2224 VRB15G25KT 4000 TSRA BKN015CB

Decode

Destination Runways

ID Width Length Bearing (true) Bearing (mag) Surface Threshold Offset Overrun Length
07 197 ft / 60 m 8,343 ft / 2,543 m 77.75° 72.49° Concrete 0 ft / 0 m 0 ft / 0 m
25 197 ft / 60 m 8,343 ft / 2,543 m 257.77° 252.51° Concrete 784 ft / 239 m 0 ft / 0 m

Approach Navaids

Runway Type Ident Frequency Range Bearing (true) Bearing (mag) Slope Elevation
25 Localiser KRW 110.30 MHz 18 nm / 33 km 257.73° 252.48° - 791 ft / 241 m (AMSL)
25 Glidescope KRW 110.30 MHz 10 nm / 19 km 257.76° 252.50° 3.00° 791 ft / 241 m (AMSL)
25 DME KRW 110.30 MHz 18 nm / 33 km - - - 827 ft / 252 m (AMSL)